Date String (YYYY-MM-DD hh:mm:ss) UTC,Instrument flags,Ambient pressure (hPa),Sample flow (lpm),Bypass flow (lpm),Sample temperature (°C),Ambient temperature (°C),ASC tube jacket temperature (°C),LED temperature (°C),Box temperature (°C),Sample RH (%),Span deviation,Mass concentration (μg/m³),Mass concentration (μg/m³),Mass concentration (μg/m³)
DateTimeUTC,F1_M11,P_M11,Q1_M11,Q2_M11,T1_M11,T2_M11,T3_M11,T4_M11,T5_M11,U1_M11,ZSPAN_M11,X0_M11,X2_M11,X1_M11
2022-03-12 13:00:00,,0826.1,4.99,0.00,21.7,20.8,00.0,31.0,23.1,08.8,0000.0,0002.15,0001.25,0000.73
2022-03-12 13:01:00,,0826.1,5.00,0.00,21.6,20.7,00.0,31.0,23.1,08.8,0000.0,0002.02,0001.19,0000.72
2022-03-12 13:02:00,,0826.2,5.00,0.00,21.6,21.1,00.0,30.9,23.2,08.7,0000.0,0001.97,0001.16,0000.72
2022-03-12 13:03:00,,0826.1,5.00,0.00,21.8,22.1,00.0,31.0,23.5,08.7,0000.0,0001.97,0001.15,0000.73
2022-03-12 13:04:00,,0826.2,5.00,0.00,22.0,22.9,00.0,31.0,23.9,08.7,0000.0,0001.96,0001.14,0000.72
2022-03-12 13:05:00,,0826.1,5.00,0.00,22.0,22.8,00.0,31.0,23.9,08.4,0000.0,0001.92,0001.11,0000.73
2022-03-12 13:06:00,,0826.1,4.99,0.00,22.0,22.4,00.0,31.0,23.7,08.6,0000.0,0002.05,0001.13,0000.73
2022-03-12 13:07:00,,0826.1,5.00,0.00,21.9,22.0,00.0,31.0,23.6,08.7,0000.0,0002.14,0001.12,0000.73
2022-03-12 13:08:00,,0826.1,5.00,0.00,21.9,21.8,00.0,31.0,23.5,08.6,0000.0,0002.19,0001.14,0000.73
2022-03-12 13:09:00,,0826.1,5.00,0.00,21.8,21.5,00.0,31.0,23.3,08.6,0000.0,0002.13,0001.12,0000.73
2022-03-12 13:10:00,,0826.1,4.99,0.00,21.8,21.3,00.0,31.0,23.2,08.6,0000.0,0002.11,0001.10,0000.74
2022-03-12 13:11:00,,0826.1,5.00,0.00,21.7,21.1,00.0,30.9,23.1,08.6,0000.0,0001.96,0001.04,0000.73
2022-03-12 13:12:00,,0826.1,5.00,0.00,21.6,20.9,00.0,30.9,23.0,08.9,0000.0,0001.95,0001.03,0000.72
2022-03-12 13:13:00,,0826.1,5.00,0.00,21.6,20.8,00.0,30.9,23.0,08.8,0000.0,0001.95,0001.04,0000.73
2022-03-12 13:14:00,,0826.2,5.00,0.00,21.5,20.7,00.0,30.8,23.0,08.7,0000.0,0002.07,0001.08,0000.73
2022-03-12 13:15:00,,0826.2,4.99,0.00,21.5,21.2,00.0,30.8,23.1,08.6,0000.0,0002.07,0001.08,0000.72
2022-03-12 13:16:00,,0826.1,5.01,0.00,21.7,22.2,00.0,30.8,23.5,08.6,0000.0,0002.04,0001.07,0000.71
2022-03-12 13:17:00,,0826.1,5.01,0.00,21.9,22.9,00.0,30.9,23.8,08.6,0000.0,0001.88,0001.07,0000.71
2022-03-12 13:18:00,,0826.1,5.00,0.00,21.9,22.7,00.0,30.9,23.8,08.6,0000.0,0001.85,0001.08,0000.71
2022-03-12 13:19:00,,0826.1,4.99,0.00,21.9,22.3,00.0,30.9,23.6,08.6,0000.0,0001.80,0001.06,0000.70
2022-03-12 13:20:00,,0826.1,5.00,0.00,21.8,21.9,00.0,30.9,23.4,08.8,0000.0,0001.91,0001.05,0000.70
2022-03-12 13:21:00,,0826.1,5.00,0.00,21.8,21.6,00.0,30.9,23.3,08.7,0000.0,0002.27,0001.08,0000.70
2022-03-12 13:22:00,,0826.0,5.00,0.00,21.7,21.3,00.0,30.8,23.2,08.8,0000.0,0002.54,0001.15,0000.70
2022-03-12 13:23:00,,0826.0,5.00,0.00,21.6,21.1,00.0,30.8,23.1,08.7,0000.0,0002.65,0001.19,0000.72
2022-03-12 13:24:00,,0825.9,5.00,0.00,21.6,20.9,00.0,30.8,23.0,08.7,0000.0,0003.13,0001.22,0000.71
2022-03-12 13:25:00,,0825.9,5.00,0.00,21.5,20.8,00.0,30.8,23.0,08.8,0000.0,0003.26,0001.19,0000.70
2022-03-12 13:26:00,,0825.9,5.01,0.00,21.4,20.7,00.0,30.7,22.9,09.1,0000.0,0003.28,0001.19,0000.69
2022-03-12 13:27:00,,0825.8,5.00,0.00,21.4,20.7,00.0,30.7,22.9,09.0,0000.0,0003.35,0001.24,0000.70
2022-03-12 13:28:00,,0825.8,4.99,0.00,21.5,21.5,00.0,30.7,23.2,08.9,0000.0,0003.32,0001.23,0000.69
2022-03-12 13:29:00,,0825.8,5.01,0.00,21.7,22.5,00.0,30.8,23.6,08.7,0000.0,0003.27,0001.23,0000.69
2022-03-12 13:30:00,,0825.7,5.00,0.00,21.9,23.1,00.0,30.8,23.9,08.6,0000.0,0003.34,0001.25,0000.70
2022-03-12 13:31:00,,0825.6,5.00,0.00,22.0,22.8,00.0,30.8,23.9,08.6,0000.0,0003.39,0001.29,0000.70
2022-03-12 13:32:00,,0825.6,5.00,0.00,22.0,22.5,00.0,30.9,23.8,08.5,0000.0,0003.06,0001.27,0000.69
2022-03-12 13:33:00,,0825.6,5.00,0.00,21.9,22.2,00.0,30.9,23.7,08.5,0000.0,0002.82,0001.21,0000.68
2022-03-12 13:34:00,,0825.6,5.01,0.00,21.9,21.9,00.0,30.9,23.6,08.7,0000.0,0002.69,0001.16,0000.66
2022-03-12 13:35:00,,0825.6,5.00,0.00,21.9,21.7,00.0,30.9,23.5,08.9,0000.0,0002.23,0001.14,0000.66
2022-03-12 13:36:00,,0825.6,5.00,0.00,21.9,21.6,00.0,30.9,23.4,08.6,0000.0,0002.06,0001.16,0000.65
2022-03-12 13:37:00,,0825.7,5.00,0.00,21.8,21.4,00.0,30.9,23.4,08.7,0000.0,0001.99,0001.14,0000.65
2022-03-12 13:38:00,,0825.7,5.00,0.00,21.8,21.3,00.0,30.9,23.4,08.7,0000.0,0002.06,0001.14,0000.65
2022-03-12 13:39:00,,0825.7,4.99,0.00,21.7,21.2,00.0,30.8,23.3,08.8,0000.0,0002.08,0001.13,0000.66
2022-03-12 13:40:00,,0825.7,5.02,0.00,21.7,21.1,00.0,30.8,23.3,08.9,0000.0,0002.05,0001.12,0000.66
2022-03-12 13:41:00,,0825.7,4.99,0.00,21.7,21.1,00.0,30.8,23.2,08.9,0000.0,0002.06,0001.12,0000.66
2022-03-12 13:42:00,,0825.7,5.00,0.00,21.7,21.0,00.0,30.8,23.2,09.0,0000.0,0001.94,0001.09,0000.66
2022-03-12 13:43:00,,0825.7,5.00,0.00,21.6,20.9,00.0,30.8,23.2,09.1,0000.0,0002.01,0001.13,0000.67
2022-03-12 13:44:00,,0825.7,5.01,0.00,21.6,21.2,00.0,30.8,23.2,08.9,0000.0,0001.96,0001.11,0000.66
2022-03-12 13:45:00,,0825.7,4.99,0.00,21.7,22.1,00.0,30.8,23.6,09.0,0000.0,0002.08,0001.14,0000.67
2022-03-12 13:46:00,,0825.7,5.01,0.00,21.9,23.0,00.0,30.9,23.9,08.8,0000.0,0003.08,0001.16,0000.68
2022-03-12 13:47:00,,0825.7,5.00,0.00,22.1,23.0,00.0,30.9,24.0,08.6,0000.0,0003.39,0001.11,0000.69
2022-03-12 13:48:00,,0825.7,4.99,0.00,22.1,22.6,00.0,30.9,23.9,08.9,0000.0,0003.35,0001.09,0000.69
2022-03-12 13:49:00,,0825.7,5.00,0.00,22.0,22.3,00.0,30.9,23.8,08.8,0000.0,0003.24,0001.07,0000.69
2022-03-12 13:50:00,,0825.7,5.00,0.00,22.0,22.0,00.0,30.9,23.6,08.8,0000.0,0003.18,0001.06,0000.70
2022-03-12 13:51:00,,0825.6,5.00,0.00,21.9,21.7,00.0,30.9,23.4,09.0,0000.0,0003.13,0001.04,0000.70
2022-03-12 13:52:00,,0825.6,5.00,0.00,21.8,21.5,00.0,30.9,23.4,09.0,0000.0,0003.66,0001.02,0000.70
2022-03-12 13:53:00,,0825.6,5.00,0.00,21.8,21.3,00.0,30.9,23.3,09.1,0000.0,0004.57,0001.05,0000.71
2022-03-12 13:54:00,,0825.7,5.01,0.00,21.8,21.2,00.0,30.9,23.3,09.1,0000.0,0005.18,0001.05,0000.71
2022-03-12 13:55:00,,0825.6,5.01,0.00,21.7,21.1,00.0,30.9,23.3,08.8,0000.0,0005.51,0001.11,0000.72
2022-03-12 13:56:00,,0825.6,5.01,0.00,21.7,21.1,00.0,30.9,23.3,08.9,0000.0,0005.53,0001.10,0000.73
2022-03-12 13:57:00,,0825.7,5.00,0.00,21.7,21.0,00.0,30.8,23.3,08.7,0000.0,0004.53,0001.10,0000.73
2022-03-12 13:58:00,,0825.7,5.00,0.00,21.7,21.0,00.0,30.8,23.2,08.9,0000.0,0004.42,0001.12,0000.74
2022-03-12 13:59:00,,0825.8,5.00,0.00,21.6,21.0,00.0,30.8,23.2,09.0,0000.0,0004.49,0001.14,0000.73
